Regional Weather Roundup
Issued by NWS Albany, NY

Home | Current Version | Previous Version | Text Only | Print | Product List | Glossary On
Versions: 1 2 3 4 5 6 7 8 9 10 11 12 13 14 15 16 17 18 19 20 21 22 23 24 25 26 27 28
000
ASUS41 KALY 151410
RWRALY

NEW YORK STATE HOURLY WEATHER ROUNDUP
NATIONAL WEATHER SERVICE ALBANY NY
1000 AM EDT TUE APR 15 2014

NOTE: "FAIR" INDICATES FEW OR NO CLOUDS BELOW 12,000 FEET WITH NO
SIGNIFICANT WEATHER AND/OR NO OBSTRUCTIONS TO VISIBILITY.

NYZ032-033-038>043-046>054-057>066-NYZ062>081-151500-
EAST


CITY           SKY/WX    TMP DP  RH WIND       PRES   REMARKS
ALBANY         CLOUDY    63  58  83 S17G25    29.58F
GLENS FALLS    LGT RAIN  62  59  90 S13G23    29.55F
POUGHKEEPSIE   CLOUDY    64  60  87 S9G20     29.64F FOG
NEWBURGH       DRIZZLE   61  61 100 S9        29.66F FOG
MONTGOMERY     LGT RAIN  64  61  90 S13       29.61F
WHITE PLAINS   LGT RAIN  57  55  94 S18G32    29.69F VSB 3/4
ISLIP          LGT RAIN  58  55  90 S18G33    29.73F FOG
NEW YORK CITY  HVY RAIN  59  55  87 S18G28    29.69F FOG
CENTRAL PARK   LGT RAIN  60  57  89 S8G18     29.72F FOG
$$

NYZ005>009-017-018-044>046-055-056-151500-
CENTRAL


CITY           SKY/WX    TMP DP  RH WIND       PRES   REMARKS
FULTON         LGT RAIN  36  34  92 W15G24    29.60R WCI  27
SYRACUSE       RAIN      38  38 100 W13       29.59R WCI  30
ROME           HVY RAIN  47  44  90 W21G30    29.54R FOG
ELMIRA         HVY RAIN  48  43  82 W16G31    29.54R
BINGHAMTON     LGT RAIN  60  58  92 S13G20    29.50F
MONTICELLO     CLOUDY    61  61 100 S15G22    29.61F
$$

NYZ026>034-041>043-151500-
NORTH


CITY           SKY/WX    TMP DP  RH WIND       PRES   REMARKS
WATERTOWN      LGT RAIN  40  37  89 SW8       29.56R WCI  34
FORT DRUM      NOT AVBL
MASSENA        RAIN      44  43  96 W14G21    29.44S FOG
SARANAC LAKE   CLOUDY    59  53  80 S16G25    29.44F
PLATTSBURGH    CLOUDY    63  56  78 S22G32    29.45F
$$

NYZ001>004-010>016-019>021-151500-
WEST


CITY           SKY/WX    TMP DP  RH WIND       PRES   REMARKS
NIAGARA FALLS  LGT SNOW  32  29  88 NW16      29.69R VSB 1   WCI  21
BUFFALO        LGT SNOW  32  31  96 W12       29.69R VSB 3/4 WCI  23
DUNKIRK        LGT SNOW  32  31  96 W8        29.75R FOG     WCI  25
JAMESTOWN      CLOUDY    30  27  86 CALM      29.69R VSB 1
WELLSVILLE     LGT RAIN  34  31  88 NW8       29.60R WCI  27
ROCHESTER      HVY RAIN  36  33  89 W12       29.64R FOG     WCI  28
PENN YAN       LGT RAIN  38  34  85 W5        29.60R WCI  34
$$

             KEY
       WCI = WIND CHILL INDEX
       VSB = VISIBILITY
       HX  = HEAT INDEX
$$



USA.gov is the U.S. government's official web portal to all federal, state and local government web resources and services.